Tracking 28081 objects as of 26-Sep-2023
HD Live streaming from Space Station
objects crossing your sky now

STARLINK-1846

Track STARLINK-1846 now!
10-day predictions
STARLINK-1846 is classified as:


NORAD ID: 47136
Int'l Code: 2020-088Q
Perigee: 553.5 km
Apogee: 555.2 km
Inclination: 53.1 °
Period: 95.6 minutes
Semi major axis: 6925 km
RCS: Unknown
Launch date: November 25, 2020
Source: United States (US)
Launch site: AIR FORCE EASTERN TEST RANGE (AFETR)
Your satellite tracking list
Your tracking list is empty




NASA's NSSDC Master Catalog

Two Line Element Set (TLE):
1 47136U 20088Q   23268.53009773  .00024216  00000-0  16389-2 0  9998
2 47136  53.0557   4.6367 0001262 105.6828 254.4301 15.06402762157066
Source of the keplerian elements: AFSPC